Time,TemperatureF,DewpointF,PressureIn,WindDirection,WindDirectionDegrees,WindSpeedMPH,WindSpeedGustMPH,Humidity,HourlyPrecipIn,Conditions,Clouds,dailyrainin,SoftwareType,DateUTC
2013-04-09 00:02:00,11.0,9.0,30.42,SSE,152,1.0,-999.0,92,-99.99,,,-99.99,,2013-04-09 06:02:00,
2013-04-09 00:12:00,11.0,9.0,30.42,SE,143,1.0,-999.0,92,-99.99,,,-99.99,,2013-04-09 06:12:00,
2013-04-09 00:22:00,11.0,9.0,30.42,SE,143,1.0,-999.0,92,-99.99,,,-99.99,,2013-04-09 06:22:00,
2013-04-09 00:32:00,11.0,9.0,30.43,SSE,158,1.0,-999.0,92,-99.99,,,-99.99,,2013-04-09 06:32:00,
2013-04-09 00:42:00,11.0,9.0,30.43,SSE,158,1.0,-999.0,92,-99.99,,,-99.99,,2013-04-09 06:42:00,
2013-04-09 00:52:00,11.0,9.0,30.43,SE,141,1.0,-999.0,92,-99.99,,,-99.99,,2013-04-09 06:52:00,
2013-04-09 01:02:00,11.0,9.0,30.43,SSE,152,1.0,-999.0,92,-99.99,,,-99.99,,2013-04-09 07:02:00,
2013-04-09 01:12:00,11.0,9.0,30.43,SSE,152,1.0,-999.0,92,-99.99,,,-99.99,,2013-04-09 07:12:00,
2013-04-09 01:22:00,11.0,9.0,30.44,SSE,152,2.0,-999.0,92,-99.99,,,-99.99,,2013-04-09 07:22:00,
2013-04-09 01:32:00,11.0,9.0,30.44,SSE,149,1.0,-999.0,92,-99.99,,,-99.99,,2013-04-09 07:32:00,
2013-04-09 01:42:00,11.0,9.0,30.44,SSE,149,1.0,-999.0,92,-99.99,,,-99.99,,2013-04-09 07:42:00,
2013-04-09 01:52:00,10.0,8.0,30.45,SSE,152,1.0,-999.0,92,-99.99,,,-99.99,,2013-04-09 07:52:00,
2013-04-09 02:02:00,10.0,8.0,30.45,SSE,168,1.0,-999.0,92,-99.99,,,-99.99,,2013-04-09 08:02:00,
2013-04-09 02:12:00,10.0,8.0,30.45,SSE,168,1.0,-999.0,92,-99.99,,,-99.99,,2013-04-09 08:12:00,
2013-04-09 02:22:00,10.0,8.0,30.45,SE,146,1.0,-999.0,92,-99.99,,,-99.99,,2013-04-09 08:22:00,
2013-04-09 02:32:00,10.0,8.0,30.45,SSE,153,1.0,-999.0,92,-99.99,,,-99.99,,2013-04-09 08:32:00,
2013-04-09 02:42:00,10.0,8.0,30.45,SSE,153,1.0,-999.0,92,-99.99,,,-99.99,,2013-04-09 08:42:00,
2013-04-09 02:52:00,9.0,7.0,30.46,SSE,156,1.0,-999.0,92,-99.99,,,-99.99,,2013-04-09 08:52:00,
2013-04-09 03:01:00,9.0,7.0,30.46,SSE,153,1.0,-999.0,92,-99.99,,,-99.99,,2013-04-09 09:01:00,
2013-04-09 03:12:00,9.0,7.0,30.46,SSE,153,1.0,-999.0,92,-99.99,,,-99.99,,2013-04-09 09:12:00,
2013-04-09 03:22:00,9.0,7.0,30.46,SSE,154,0.0,-999.0,92,-99.99,,,-99.99,,2013-04-09 09:22:00,
2013-04-09 03:32:00,9.0,7.0,30.46,SSE,154,1.0,-999.0,92,-99.99,,,-99.99,,2013-04-09 09:32:00,
2013-04-09 03:43:00,9.0,7.0,30.46,SSE,154,1.0,-999.0,92,-99.99,,,-99.99,,2013-04-09 09:43:00,
2013-04-09 03:52:00,9.0,7.0,30.46,SSE,151,1.0,-999.0,92,-99.99,,,-99.99,,2013-04-09 09:52:00,
2013-04-09 04:03:00,9.0,7.0,30.45,SSE,154,2.0,-999.0,92,-99.99,,,-99.99,,2013-04-09 10:03:00,
2013-04-09 04:12:00,9.0,7.0,30.45,SSE,154,2.0,-999.0,92,-99.99,,,-99.99,,2013-04-09 10:12:00,
2013-04-09 04:23:00,9.0,7.0,30.46,SSE,155,1.0,-999.0,92,-99.99,,,-99.99,,2013-04-09 10:23:00,
2013-04-09 04:32:00,9.0,7.0,30.46,SSE,155,2.0,-999.0,92,-99.99,,,-99.99,,2013-04-09 10:32:00,
2013-04-09 04:42:00,9.0,7.0,30.46,SSE,155,2.0,-999.0,92,-99.99,,,-99.99,,2013-04-09 10:42:00,
2013-04-09 04:53:00,9.0,7.0,30.46,SSE,155,1.0,-999.0,92,-99.99,,,-99.99,,2013-04-09 10:53:00,
2013-04-09 05:02:00,9.0,7.0,30.47,SSE,156,1.0,-999.0,92,-99.99,,,-99.99,,2013-04-09 11:02:00,
2013-04-09 05:12:00,9.0,7.0,30.47,SSE,156,1.0,-999.0,92,-99.99,,,-99.99,,2013-04-09 11:12:00,
2013-04-09 05:22:00,9.0,7.0,30.47,SSE,157,1.0,-999.0,92,-99.99,,,-99.99,,2013-04-09 11:22:00,
2013-04-09 05:32:00,9.0,7.0,30.47,SSE,157,0.0,-999.0,92,-99.99,,,-99.99,,2013-04-09 11:32:00,
2013-04-09 05:42:00,9.0,7.0,30.47,SSE,157,0.0,-999.0,92,-99.99,,,-99.99,,2013-04-09 11:42:00,
2013-04-09 05:52:00,9.0,7.0,30.48,SSE,157,0.0,-999.0,92,-99.99,,,-99.99,,2013-04-09 11:52:00,
2013-04-09 06:01:00,10.0,8.0,30.48,SSE,157,1.0,-999.0,92,-99.99,,,-99.99,,2013-04-09 12:01:00,
2013-04-09 06:12:00,10.0,8.0,30.48,SSE,157,1.0,-999.0,92,-99.99,,,-99.99,,2013-04-09 12:12:00,
2013-04-09 06:22:00,11.0,9.0,30.48,SSE,157,0.0,-999.0,93,-99.99,,,-99.99,,2013-04-09 12:22:00,
2013-04-09 06:32:00,11.0,9.0,30.48,SSE,157,1.0,-999.0,92,-99.99,,,-99.99,,2013-04-09 12:32:00,
2013-04-09 06:42:00,11.0,9.0,30.48,SSE,157,1.0,-999.0,92,-99.99,,,-99.99,,2013-04-09 12:42:00,
2013-04-09 06:53:00,10.0,8.0,30.48,SSE,157,0.0,-999.0,92,-99.99,,,-99.99,,2013-04-09 12:53:00,
2013-04-09 07:02:00,10.0,8.0,30.49,SSE,157,0.0,-999.0,92,-99.99,,,-99.99,,2013-04-09 13:02:00,
2013-04-09 07:12:00,10.0,8.0,30.49,SSE,157,0.0,-999.0,92,-99.99,,,-99.99,,2013-04-09 13:12:00,
2013-04-09 07:22:00,10.0,8.0,30.50,SSE,157,0.0,-999.0,92,-99.99,,,-99.99,,2013-04-09 13:22:00,
2013-04-09 07:32:00,9.0,7.0,30.50,SSE,157,0.0,-999.0,91,-99.99,,,-99.99,,2013-04-09 13:32:00,
2013-04-09 07:42:00,9.0,7.0,30.50,SSE,157,0.0,-999.0,91,-99.99,,,-99.99,,2013-04-09 13:42:00,
2013-04-09 07:53:00,9.0,7.0,30.50,SSE,157,0.0,-999.0,92,-99.99,,,-99.99,,2013-04-09 13:53:00,
2013-04-09 08:02:00,9.0,7.0,30.51,SSE,156,0.0,-999.0,92,-99.99,,,-99.99,,2013-04-09 14:02:00,
2013-04-09 08:12:00,9.0,7.0,30.51,SSE,156,0.0,-999.0,92,-99.99,,,-99.99,,2013-04-09 14:12:00,
2013-04-09 08:22:00,10.0,8.0,30.51,SSE,157,0.0,-999.0,93,-99.99,,,-99.99,,2013-04-09 14:22:00,
2013-04-09 08:32:00,11.0,9.0,30.51,SSE,157,0.0,-999.0,93,-99.99,,,-99.99,,2013-04-09 14:32:00,
2013-04-09 08:42:00,11.0,9.0,30.51,SSE,157,0.0,-999.0,93,-99.99,,,-99.99,,2013-04-09 14:42:00,
2013-04-09 08:52:00,13.0,12.0,30.52,SSE,157,0.0,-999.0,94,-99.99,,,-99.99,,2013-04-09 14:52:00,
2013-04-09 09:01:00,15.0,14.0,30.52,SSE,157,0.0,-999.0,95,-99.99,,,-99.99,,2013-04-09 15:01:00,
2013-04-09 09:12:00,15.0,14.0,30.52,SSE,157,0.0,-999.0,95,-99.99,,,-99.99,,2013-04-09 15:12:00,
2013-04-09 09:22:00,16.0,15.0,30.53,SSE,157,1.0,-999.0,95,-99.99,,,-99.99,,2013-04-09 15:22:00,
2013-04-09 09:32:00,17.0,16.0,30.52,SSE,157,0.0,-999.0,95,-99.99,,,-99.99,,2013-04-09 15:32:00,
2013-04-09 09:42:00,17.0,16.0,30.52,SSE,157,0.0,-999.0,95,-99.99,,,-99.99,,2013-04-09 15:42:00,
2013-04-09 09:53:00,18.0,17.0,30.53,SSE,157,0.0,-999.0,95,-99.99,,,-99.99,,2013-04-09 15:53:00,
2013-04-09 10:03:00,19.0,18.0,30.53,SSE,157,0.0,-999.0,95,-99.99,,,-99.99,,2013-04-09 16:03:00,
2013-04-09 10:12:00,19.0,18.0,30.53,SSE,157,0.0,-999.0,95,-99.99,,,-99.99,,2013-04-09 16:12:00,
2013-04-09 10:22:00,19.0,18.0,30.53,SSE,164,0.0,-999.0,95,-99.99,,,-99.99,,2013-04-09 16:22:00,
2013-04-09 10:32:00,17.0,16.0,30.53,West,269,2.0,-999.0,94,-99.99,,,-99.99,,2013-04-09 16:32:00,
2013-04-09 10:42:00,17.0,16.0,30.53,West,269,2.0,-999.0,94,-99.99,,,-99.99,,2013-04-09 16:42:00,
2013-04-09 10:53:00,17.0,16.0,30.53,West,260,2.0,-999.0,95,-99.99,,,-99.99,,2013-04-09 16:53:00,
2013-04-09 11:02:00,18.0,17.0,30.53,West,266,2.0,-999.0,95,-99.99,,,-99.99,,2013-04-09 17:02:00,
2013-04-09 11:12:00,18.0,17.0,30.53,West,266,2.0,-999.0,95,-99.99,,,-99.99,,2013-04-09 17:12:00,
2013-04-09 11:22:00,19.0,18.0,30.54,West,279,3.0,-999.0,95,-99.99,,,-99.99,,2013-04-09 17:22:00,
2013-04-09 11:32:00,20.0,19.0,30.53,West,274,2.0,-999.0,95,-99.99,,,-99.99,,2013-04-09 17:32:00,
2013-04-09 11:42:00,20.0,19.0,30.53,West,274,2.0,-999.0,95,-99.99,,,-99.99,,2013-04-09 17:42:00,
2013-04-09 11:53:00,22.0,21.0,30.54,WSW,237,1.0,-999.0,96,-99.99,,,-99.99,,2013-04-09 17:53:00,
2013-04-09 12:02:00,22.0,21.0,30.53,WSW,256,1.0,-999.0,96,-99.99,,,-99.99,,2013-04-09 18:02:00,
2013-04-09 12:12:00,22.0,21.0,30.53,WSW,256,1.0,-999.0,96,-99.99,,,-99.99,,2013-04-09 18:12:00,
2013-04-09 12:32:00,24.0,23.0,30.53,West,273,1.0,-999.0,96,-99.99,,,-99.99,,2013-04-09 18:32:00,
2013-04-09 12:42:00,24.0,23.0,30.53,West,273,1.0,-999.0,96,-99.99,,,-99.99,,2013-04-09 18:42:00,
2013-04-09 12:53:00,25.0,24.0,30.53,West,273,1.0,-999.0,97,-99.99,,,-99.99,,2013-04-09 18:53:00,
2013-04-09 13:02:00,25.0,24.0,30.53,West,273,1.0,-999.0,97,-99.99,,,-99.99,,2013-04-09 19:02:00,
2013-04-09 13:11:00,25.0,24.0,30.53,West,273,1.0,-999.0,97,-99.99,,,-99.99,,2013-04-09 19:11:00,
2013-04-09 13:22:00,25.0,24.0,30.53,West,273,1.0,-999.0,97,-99.99,,,-99.99,,2013-04-09 19:22:00,
2013-04-09 13:32:00,24.0,23.0,30.53,West,260,2.0,-999.0,96,-99.99,,,-99.99,,2013-04-09 19:32:00,
2013-04-09 13:42:00,24.0,23.0,30.53,West,260,2.0,-999.0,96,-99.99,,,-99.99,,2013-04-09 19:42:00,
2013-04-09 13:52:00,24.0,23.0,30.52,WNW,284,2.0,-999.0,96,-99.99,,,-99.99,,2013-04-09 19:52:00,
2013-04-09 14:02:00,26.0,26.0,30.52,WNW,284,0.0,-999.0,98,-99.99,,,-99.99,,2013-04-09 20:02:00,
2013-04-09 14:11:00,26.0,26.0,30.52,WNW,284,0.0,-999.0,98,-99.99,,,-99.99,,2013-04-09 20:11:00,
2013-04-09 14:22:00,25.0,24.0,30.53,WNW,290,1.0,-999.0,97,-99.99,,,-99.99,,2013-04-09 20:22:00,
2013-04-09 14:32:00,24.0,23.0,30.53,WNW,289,2.0,-999.0,96,-99.99,,,-99.99,,2013-04-09 20:32:00,
2013-04-09 14:42:00,24.0,23.0,30.53,WNW,289,2.0,-999.0,96,-99.99,,,-99.99,,2013-04-09 20:42:00,
2013-04-09 14:52:00,24.0,23.0,30.53,WNW,289,2.0,-999.0,96,-99.99,,,-99.99,,2013-04-09 20:52:00,
2013-04-09 15:02:00,23.0,22.0,30.53,WNW,291,1.0,-999.0,96,-99.99,,,-99.99,,2013-04-09 21:02:00,
2013-04-09 15:12:00,23.0,22.0,30.53,WNW,291,1.0,-999.0,96,-99.99,,,-99.99,,2013-04-09 21:12:00,
2013-04-09 15:22:00,23.0,22.0,30.53,WNW,291,1.0,-999.0,96,-99.99,,,-99.99,,2013-04-09 21:22:00,
2013-04-09 15:32:00,25.0,24.0,30.52,West,277,1.0,-999.0,96,-99.99,,,-99.99,,2013-04-09 21:32:00,
2013-04-09 15:42:00,25.0,24.0,30.52,West,277,1.0,-999.0,96,-99.99,,,-99.99,,2013-04-09 21:42:00,
2013-04-09 15:53:00,25.0,24.0,30.51,North,10,1.0,-999.0,94,-99.99,,,-99.99,,2013-04-09 21:53:00,
2013-04-09 16:02:00,25.0,24.0,30.51,NNW,339,2.0,-999.0,95,-99.99,,,-99.99,,2013-04-09 22:02:00,
2013-04-09 16:12:00,25.0,24.0,30.51,NNW,339,2.0,-999.0,95,-99.99,,,-99.99,,2013-04-09 22:12:00,
2013-04-09 16:22:00,26.0,25.0,30.51,NNW,345,1.0,-999.0,94,-99.99,,,-99.99,,2013-04-09 22:22:00,
2013-04-09 16:32:00,25.0,24.0,30.51,NNW,330,1.0,-999.0,95,-99.99,,,-99.99,,2013-04-09 22:32:00,
2013-04-09 16:42:00,25.0,24.0,30.51,NNW,330,1.0,-999.0,95,-99.99,,,-99.99,,2013-04-09 22:42:00,
2013-04-09 16:53:00,24.0,23.0,30.52,NW,310,1.0,-999.0,96,-99.99,,,-99.99,,2013-04-09 22:53:00,
2013-04-09 17:02:00,24.0,23.0,30.52,NW,305,2.0,-999.0,96,-99.99,,,-99.99,,2013-04-09 23:02:00,
2013-04-09 17:12:00,24.0,23.0,30.52,NW,305,2.0,-999.0,96,-99.99,,,-99.99,,2013-04-09 23:12:00,
2013-04-09 17:32:00,25.0,24.0,30.52,NW,312,1.0,-999.0,95,-99.99,,,-99.99,,2013-04-09 23:32:00,
2013-04-09 17:42:00,25.0,24.0,30.52,NW,312,1.0,-999.0,95,-99.99,,,-99.99,,2013-04-09 23:42:00,
2013-04-09 17:53:00,24.0,23.0,30.52,NW,312,1.0,-999.0,96,-99.99,,,-99.99,,2013-04-09 23:53:00,
2013-04-09 18:02:00,24.0,23.0,30.52,NW,312,1.0,-999.0,96,-99.99,,,-99.99,,2013-04-10 00:02:00,
2013-04-09 18:11:00,24.0,23.0,30.52,NW,312,1.0,-999.0,96,-99.99,,,-99.99,,2013-04-10 00:11:00,
2013-04-09 18:22:00,24.0,23.0,30.51,NW,308,2.0,-999.0,95,-99.99,,,-99.99,,2013-04-10 00:22:00,
2013-04-09 18:32:00,24.0,23.0,30.51,NW,306,3.0,-999.0,95,-99.99,,,-99.99,,2013-04-10 00:32:00,
2013-04-09 18:41:00,24.0,23.0,30.51,NW,306,3.0,-999.0,95,-99.99,,,-99.99,,2013-04-10 00:41:00,
2013-04-09 18:52:00,23.0,22.0,30.51,WNW,302,2.0,-999.0,95,-99.99,,,-99.99,,2013-04-10 00:52:00,
2013-04-09 19:01:00,24.0,23.0,30.51,WNW,297,2.0,-999.0,96,-99.99,,,-99.99,,2013-04-10 01:01:00,
2013-04-09 19:11:00,24.0,23.0,30.51,WNW,297,2.0,-999.0,95,-99.99,,,-99.99,,2013-04-10 01:11:00,
2013-04-09 19:22:00,24.0,23.0,30.51,WNW,297,2.0,-999.0,95,-99.99,,,-99.99,,2013-04-10 01:22:00,
2013-04-09 19:31:00,23.0,22.0,30.51,WNW,292,2.0,-999.0,95,-99.99,,,-99.99,,2013-04-10 01:31:00,
2013-04-09 19:42:00,23.0,22.0,30.51,WNW,292,2.0,-999.0,95,-99.99,,,-99.99,,2013-04-10 01:42:00,
2013-04-09 19:52:00,23.0,22.0,30.51,West,276,2.0,-999.0,96,-99.99,,,-99.99,,2013-04-10 01:52:00,
2013-04-09 20:01:00,23.0,22.0,30.50,West,279,4.0,-999.0,96,-99.99,,,-99.99,,2013-04-10 02:01:00,
2013-04-09 20:12:00,23.0,22.0,30.50,West,279,4.0,-999.0,96,-99.99,,,-99.99,,2013-04-10 02:12:00,
2013-04-09 20:22:00,23.0,22.0,30.50,WNW,285,3.0,-999.0,96,-99.99,,,-99.99,,2013-04-10 02:22:00,
2013-04-09 20:32:00,22.0,21.0,30.50,WNW,283,4.0,-999.0,95,-99.99,,,-99.99,,2013-04-10 02:32:00,
2013-04-09 20:42:00,22.0,21.0,30.50,WNW,283,4.0,-999.0,95,-99.99,,,-99.99,,2013-04-10 02:42:00,
2013-04-09 20:52:00,22.0,21.0,30.50,WNW,287,4.0,-999.0,96,-99.99,,,-99.99,,2013-04-10 02:52:00,
2013-04-09 21:02:00,22.0,21.0,30.50,WNW,299,4.0,-999.0,95,-99.99,,,-99.99,,2013-04-10 03:02:00,
2013-04-09 21:12:00,22.0,21.0,30.50,WNW,299,4.0,-999.0,95,-99.99,,,-99.99,,2013-04-10 03:12:00,
2013-04-09 21:22:00,22.0,21.0,30.50,WNW,294,4.0,-999.0,95,-99.99,,,-99.99,,2013-04-10 03:22:00,
2013-04-09 21:32:00,22.0,21.0,30.50,WNW,290,4.0,-999.0,95,-99.99,,,-99.99,,2013-04-10 03:32:00,
2013-04-09 21:43:00,22.0,21.0,30.50,WNW,290,4.0,-999.0,95,-99.99,,,-99.99,,2013-04-10 03:43:00,
2013-04-09 21:52:00,22.0,21.0,30.50,NW,314,3.0,-999.0,95,-99.99,,,-99.99,,2013-04-10 03:52:00,
2013-04-09 22:02:00,22.0,21.0,30.50,WNW,297,2.0,-999.0,95,-99.99,,,-99.99,,2013-04-10 04:02:00,
2013-04-09 22:13:00,22.0,21.0,30.50,WNW,297,2.0,-999.0,95,-99.99,,,-99.99,,2013-04-10 04:13:00,
2013-04-09 22:22:00,22.0,21.0,30.50,WNW,291,2.0,-999.0,95,-99.99,,,-99.99,,2013-04-10 04:22:00,
2013-04-09 22:33:00,22.0,21.0,30.50,WNW,298,2.0,-999.0,95,-99.99,,,-99.99,,2013-04-10 04:33:00,
2013-04-09 22:42:00,22.0,21.0,30.50,WNW,298,2.0,-999.0,95,-99.99,,,-99.99,,2013-04-10 04:42:00,
2013-04-09 22:53:00,22.0,21.0,30.49,WNW,297,3.0,-999.0,95,-99.99,,,-99.99,,2013-04-10 04:53:00,
2013-04-09 23:02:00,22.0,21.0,30.48,WNW,287,4.0,-999.0,95,-99.99,,,-99.99,,2013-04-10 05:02:00,
2013-04-09 23:12:00,22.0,21.0,30.48,WNW,287,4.0,-999.0,95,-99.99,,,-99.99,,2013-04-10 05:12:00,
2013-04-09 23:22:00,22.0,21.0,30.49,WNW,288,2.0,-999.0,95,-99.99,,,-99.99,,2013-04-10 05:22:00,
2013-04-09 23:32:00,22.0,21.0,30.48,WNW,299,2.0,-999.0,95,-99.99,,,-99.99,,2013-04-10 05:32:00,
2013-04-09 23:42:00,22.0,21.0,30.48,WNW,299,2.0,-999.0,95,-99.99,,,-99.99,,2013-04-10 05:42:00,
2013-04-09 23:53:00,22.0,21.0,30.46,WNW,291,3.0,-999.0,95,-99.99,,,-99.99,,2013-04-10 05:53:00,